Find Starlink 1655

NORAD ID: 47623 Int'l Des: 2021-012 Owner: SPXS Country: US Constellation: starlink operational
LEOCIRCULAR

現在のビュー

3D地球を読み込み中...

About Starlink 1655

Starlink 1655 (NORAD 47623) is a starlink constellation satellite (v1.0) launched Feb 16, 2021 by SPXS of US. It operates in LEO, CIRCULAR orbit with a mass of 260.00 kg.

Starlink 1655について

説明を読み込み中...

次回通過

Passes for default location (London). Set your location on the main map for personalized predictions.

高度履歴

Loading altitude history...

軌道要素

1 47623U 21012D 26169.31302091 .00470022 10874-3 82322-3 0 9999
2 47623 53.0250 182.8057 0001745 45.5041 314.6131 16.01557799297351
Epoch: Jun 18, 2026 • Age: 6 hours

現在のステータス

高度 275.1 km
速度 7.75 km/s
衛星直下点 53.12°N, 152.76°E
打ち上げ日 Feb 16, 2021
運用期間 5.3 years
タイプ internet

技術仕様

分類 Payload
質量 260.00 kg
乾燥質量 248.00 kg
総質量 260.00 kg
長さ 0.20 m
直径 2.80 m
スパン 9.00 m
形状 Box + pan
製造者 SPXS
バスタイプ Starlink
フェーズステータス In Orbit
所有者/国 SPXS/US

Most Searched